Regional Weather Roundup
Issued by NWS Midland/Odessa, TX

Skip options and go directly to product.
Home | Oldest Version | Previous Version | Current Version | All | Text Only | Save Text | Print | Product List | Glossary Off

Skip product version selection by date and time.   

933
ASUS44 KMAF 270210
RWRMAF
MIDLAND AREA WEATHER ROUNDUP
NATIONAL WEATHER SERVICE MIDLAND TX
900 PM CDT THU MAY 26 2016

...IN SOUTHWEST TEXAS AND SOUTHEAST NEW MEXICO...

CITY           SKY/WX    TMP DP  RH WIND       PRES   REMARKS
ALPINE         MOCLDY    83  36  18 SW9       29.85R
ANDREWS        FAIR      84  27  12 NW6       29.71S
ARTESIA        CLEAR     81  18   9 W16G22    29.76R
BIG SPRING     MOCLDY    75  57  52 SE12      29.73R
CARLSBAD       CLEAR     83  14   7 W17       29.72R
DRYDEN           N/A     79  59  50 E8        29.70R
FORT STOCKTON  PTCLDY    83  52  34 SE13      29.70R
GUAD PASS      NOT AVBL
HOBBS          CLEAR     79  21  11 W10       29.76R
MARFA          CLEAR     80  13   8 W13       29.85R
MIDLAND AIRPK  CLOUDY    84  54  36 S14       29.72R
MIDLAND INTL   CLOUDY    83  57  41 S18       29.71R
ODESSA         MOCLDY    83  55  38 SE7       29.71R
PECOS          CLOUDY    89  24   9 NW15      29.66R
PRESIDIO       FAIR      93  22   7 SW18G24   29.68
SEMINOLE       CLEAR     81  25  12 W10       29.73R
SNYDER           N/A     73  58  59 S17G25    29.70R
WINK           MOCLDY    88  24  10 NW15      29.66R
$$
...OTHER STATIONS IN TEXAS...

CITY           SKY/WX    TMP DP  RH WIND       PRES   REMARKS
ABILENE        LGT RAIN  68  65  90 SE17G31   29.76F
AMARILLO       CLEAR     75  24  15 SW14      29.70S
AUSTIN         TSTM      74  73  97 E12       29.78R
BROWNSVILLE    CLOUDY    81  76  84 S12       29.81R
CORPUS CHRISTI CLOUDY    82  76  81 SE20G25   29.78R
DALLAS FTW     MOCLDY    74  67  78 S17       29.76R
DEL RIO        CLOUDY    78  67  68 NE9       29.68R
EL PASO        CLEAR     80   4   5 W22G29    29.81R
HOUSTON INT    TSTM      69  68  96 CALM      29.90R
LUBBOCK        PTCLDY    80  24  12 W10       29.70S
SAN ANGELO     PTCLDY    68  64  87 S3        29.72F
SAN ANTONIO    CLOUDY    84  76  76 SE22      29.76R
WACO           CLOUDY    73  66  78 SE15G23   29.77R
WICHITA FALLS  NOT AVBL
$$
...OTHER LOCATIONS IN NEW MEXICO...

CITY           SKY/WX    TMP DP  RH WIND       PRES   REMARKS
ALAMAGORDO     CLEAR     73  14  10 W13       29.86R
ALBUQUERQUE    PTCLDY    65  14  14 W18G24    29.90R
CANNON AFB     CLEAR     74   8   7 W21       29.76R
CLOVIS         CLEAR     73  16  11 W14       29.77R
HOLLOMAN AFB   CLEAR     75  12   9 W13       29.84R
ROSWELL        CLEAR     79  12   8 W14       29.76R
RUIDOSO          N/A     59  10  14 SW18G26   29.97R
SANTA FE       CLEAR     58  11  15 W15G22    29.91R
TRUTH OR CONSE CLEAR     71   9   9 W16G23    29.87R
TUCUMCARI      CLEAR     74  12   9 SW15      29.72R
$$

USA.gov is the U.S. government's official web portal to all federal, state and local government web resources and services.